Regional Weather Roundup
Issued by NWS Lake Charles, LA

Home | Current Version | Previous Version | Text Only | Print | Product List | Glossary On
Versions: 1 2 3 4 5 6 7 8 9 10 11 12 13 14 15 16 17 18 19 20 21 22 23 24 25 26 27 28 29 30 31 32 33 34 35 36 37 38 39 40 41 42 43 44 45 46 47 48 49 50
000
ASUS44 KLCH 290910
RWRLCH
RWRLCH
REGIONAL WEATHER ROUNDUP
NATIONAL WEATHER SERVICE LAKE CHARLES LA
400 AM CDT SUN MAR 29 2015

Note: "fair" indicates few or no clouds below 12,000 feet with no
significant weather and/or obstructions to visibility.


ACROSS SOUTHEAST TEXAS

CITY           SKY/WX    TMP DP  RH WIND       PRES   REMARKS
BEAUMONT       CLEAR     61  60  97 S6        30.13F
BEAUMONT CITY  CLOUDY    59  59 100 S5        30.14S FOG
ORANGE         SUNNY     60  58  92 S3        30.15F FOG
JASPER         CLEAR     59  58  97 CALM      30.14S
$$

ACROSS CENTRAL LOUISIANA

CITY           SKY/WX    TMP DP  RH WIND       PRES   REMARKS
LEESVILLE      FOG       57  56  97 SE6       30.14S VSB 1/2
FULLERTON      CLOUDY    60  56  86 VRB3      30.13S FOG
ALEXANDRIA INT CLOUDY    58  57  97 SE8       30.15S
ESLER FIELD    CLOUDY    56  54  93 SE5       30.17F
DERIDDER       FOG       57  56  95 CALM      30.16S VSB 1/2
OAKDALE        CLOUDY    57  56  96 CALM      30.16S FOG
OPELOUSAS        N/A     56  54  94 SE7       30.17S
$$

ACROSS SOUTHWEST AND SOUTH CENTRAL LOUISIANA

CITY           SKY/WX    TMP DP  RH WIND       PRES   REMARKS
SULPHUR        SUNNY     61  61 100 SE3       30.15S FOG
LAKE CHARLES   CLEAR     56  55  97 SE6       30.14F
CHENNAULT INT  CLEAR     56  56  99 SE7       30.15F
CAMERON PHI    NOT AVBL
DEQUINCY         N/A     56  56 100 CALM      30.14S
JENNINGS         N/A     58  58 100 SE5       30.16S FOG
LAFAYETTE      CLEAR     56  55  97 CALM      30.18S
NEW IBERIA     CLEAR     55  54  96 SE6       30.18F
ABBEVILLE        N/A     55  55  99 CALM      30.18S FOG
PATTERSON      CLEAR     55  54  94 E3        30.18F
SALT POINT       N/A     58  57  97 E3        30.17F
$$

SELECTED SITES ACROSS THE REGION

CITY           SKY/WX    TMP DP  RH WIND       PRES   REMARKS
HOUSTON BUSH   CLEAR     58  57  97 S5        30.10F
HOUSTON HOBBY  CLEAR     61  60  97 SE3       30.10F
GALVESTON      CLEAR     65  63  93 S7        30.13S
COLLEGE STAT   CLEAR     55  50  83 SE6       30.07S
CONROE         MOCLDY    50  47  89 CALM      30.11S
HUNTSVILLE     CLEAR     61  58  90 S12       30.08F
LUFKIN         FOG       59  56  89 S7        30.10F VSB 1
SHREVEPORT     CLEAR     50  40  68 E9        30.12F
MONROE         MOCLDY    49  36  61 E5        30.20F
NATCHEZ MS     CLEAR     48  36  61 SE8       30.21S
BATON ROUGE    PTCLDY    51  50  96 NE5       30.21S
N.O. INTL ARPT PTCLDY    57  51  80 SE7       30.21F
SLIDELL        CLEAR     47  40  76 NE5       30.23F
$$

MARINE REPORTS

STATION/POSITION TIME  TEMP    WIND        PRES    VSBY  WAVE
                       AIR SEA DIR/SP/G                  HT/PER
                 (UTC) (F)     (DEG/KT/KT) (MB)    (MI)  (FT/S)
BUOY 30 S HIGH I 0850   66 66  180/  6/  6 1019.9F         2/ 5
SEA RIM ST PARK  0900   65     150/  5/  6 1021.0F
PORT ARTHUR      NOT AVBL
SABINE PASS N    NOT AVBL
TEXAS POINT      NOT AVBL
CALCASIEU PASS   NOT AVBL
LK CHARLES BEACH NOT AVBL
MARSH ISLAND     NOT AVBL
FRESH WATER LOCK NOT AVBL
AMERADA PASS     NOT AVBL
$$


USA.gov is the U.S. government's official web portal to all federal, state and local government web resources and services.